Change the Weather History Date:

Friday, January 10, 2014

  Actual Average Record
Temperature  
Mean Temperature 18 °F -  
Max Temperature 27 °F 13 °F 48 °F (2013)
Min Temperature 10 °F -12 °F -39 °F (1991)
Degree Days  
Heating Degree Days 46    
Moisture  
Dew Point 20 °F    
Average Humidity 91    
Maximum Humidity 96    
Minimum Humidity 84    
Precipitation  
Precipitation 0.00 in - - ()
Sea Level Pressure  
Sea Level Pressure 29.52 in    
Wind  
Wind Speed 8 mph (South)    
Max Wind Speed 14 mph    
Max Gust Speed 22 mph    
Visibility 4 miles    
Events Snow    
Averages and records for this station are not official NWS values.
T = Trace of Precipitation, MM = Missing Value Source: NWS Daily Summary

Daily Weather History Graph

Daily Weather History Graph

Search for Another Location

Airport or City:

Trip Planner

Search our weather history database for the weather conditions in past years. The results will help you decide how hot, cold, wet, or windy it might be!

Date:

Astronomy

Jan. 10, 2014 Rise Set
Actual Time 8:08 AM CST 4:43 PM CST
Civil Twilight 7:32 AM CST 5:19 PM CST
Nautical Twilight 6:53 AM CST 5:59 PM CST
Astronomical Twilight 6:15 AM CST 6:37 PM CST
Moon 12:54 PM CST (1/10) 3:09 AM CST (1/10)
Length of Visible Light 9h 46m
Length of Day
8h 34m
Waxing Gibbous, 75% of the Moon is Illuminated
Jan 10
Waxing Gibbous
Jan 15
Full
Jan 23
Last Quarter
Jan 30
New
Feb 6
First Quarter

Hourly Weather History & Observations

Time (CST) Temp. Windchill Dew Point Humidity Pressure Visibility Wind Dir Wind Speed Gust Speed Precip Events Conditions
12:53 AM 10.9 °F 1.4 °F 9.0 °F 92% 29.70 in 8.0 mi SE 5.8 mph - N/A   Clear
1:53 AM 12.0 °F 4.1 °F 9.0 °F 88% 29.70 in 7.0 mi SSE 4.6 mph - N/A   Clear
2:53 AM 12.9 °F 3.8 °F 10.0 °F 88% 29.68 in 7.0 mi SSE 5.8 mph - N/A   Clear
3:53 AM 12.9 °F 3.8 °F 10.0 °F 88% 29.66 in 6.0 mi SSE 5.8 mph - N/A   Clear
4:53 AM 14.0 °F 2.9 °F 12.0 °F 92% 29.65 in 6.0 mi South 8.1 mph - N/A   Clear
5:18 AM 15.1 °F 5.2 °F 12.0 °F 88% 29.57 in 6.0 mi SSE 6.9 mph - N/A   Mostly Cloudy
5:53 AM 16.0 °F 5.3 °F 14.0 °F 92% 29.63 in 5.0 mi SSE 8.1 mph - N/A   Overcast
6:53 AM 19.0 °F 8.2 °F 16.0 °F 88% 29.62 in 5.0 mi South 9.2 mph - N/A   Overcast
7:53 AM 19.9 °F 7.3 °F 18.0 °F 92% 29.62 in 4.0 mi South 12.7 mph 19.6 mph N/A   Overcast
8:53 AM 21.0 °F 9.9 °F 18.0 °F 88% 29.62 in 3.0 mi South 10.4 mph 21.9 mph N/A   Overcast
9:53 AM 21.9 °F 9.8 °F 19.0 °F 89% 29.62 in 3.0 mi South 12.7 mph 18.4 mph N/A   Overcast
10:53 AM 23.0 °F 11.7 °F 21.0 °F 92% 29.61 in 3.0 mi South 11.5 mph - N/A   Overcast
11:53 AM 24.1 °F 13.7 °F 21.0 °F 88% 29.57 in 3.0 mi South 10.4 mph 18.4 mph N/A   Overcast
12:53 PM 24.1 °F 13.1 °F 21.9 °F 91% 29.54 in 3.0 mi South 11.5 mph 18.4 mph N/A   Overcast
1:53 PM 24.1 °F 13.7 °F 21.9 °F 91% 29.53 in 3.0 mi South 10.4 mph 20.7 mph N/A   Overcast
2:17 PM 24.1 °F 12.0 °F 21.9 °F 91% 29.46 in 2.5 mi South 13.8 mph - N/A   Overcast
2:36 PM 24.1 °F 13.1 °F 21.9 °F 91% 29.45 in 2.5 mi South 11.5 mph - N/A   Overcast
2:53 PM 24.1 °F 13.7 °F 23.0 °F 96% 29.51 in 1.8 mi South 10.4 mph - 0.00 in Snow Light Snow
3:00 PM 25.0 °F 15.5 °F 23.0 °F 92% 29.45 in 1.0 mi South 9.2 mph - 0.00 in Snow Light Snow
3:16 PM 25.0 °F 15.5 °F 23.0 °F 92% 29.45 in 0.8 mi South 9.2 mph - 0.00 in Snow Light Snow
3:32 PM 25.0 °F 16.3 °F 23.0 °F 92% 29.44 in 1.0 mi South 8.1 mph - 0.00 in Snow Light Snow
3:36 PM 25.0 °F 16.3 °F 23.0 °F 92% 29.44 in 1.2 mi South 8.1 mph - 0.00 in Snow Light Snow
3:42 PM 25.0 °F 14.8 °F 23.0 °F 92% 29.44 in 2.0 mi South 10.4 mph - 0.00 in Snow Light Snow
3:53 PM 25.0 °F 15.5 °F 21.9 °F 88% 29.50 in 4.0 mi South 9.2 mph - 0.00 in   Overcast
4:01 PM 25.0 °F 15.5 °F 21.9 °F 88% 29.44 in 4.0 mi South 9.2 mph - N/A   Overcast
4:53 PM 26.1 °F 16.8 °F 21.9 °F 84% 29.50 in 5.0 mi South 9.2 mph - N/A   Overcast
5:28 PM 25.0 °F 16.3 °F 23.0 °F 92% 29.43 in 6.0 mi South 8.1 mph - N/A   Overcast
5:53 PM 25.0 °F 16.3 °F 23.0 °F 92% 29.49 in 4.0 mi South 8.1 mph - N/A   Overcast
6:22 PM 25.0 °F 17.1 °F 24.1 °F 96% 29.42 in 3.0 mi South 6.9 mph - N/A   Overcast
6:53 PM 25.0 °F 18.1 °F 24.1 °F 96% 29.47 in 3.0 mi South 5.8 mph - N/A   Overcast
7:53 PM 26.1 °F 19.4 °F 24.1 °F 92% 29.47 in 3.0 mi South 5.8 mph - N/A   Overcast
8:22 PM 26.1 °F 19.4 °F 24.1 °F 92% 29.41 in 3.0 mi SSE 5.8 mph - N/A   Overcast
8:49 PM 26.6 °F 19.1 °F 24.8 °F 93% 29.41 in 4.0 mi South 6.9 mph - N/A   Overcast
8:53 PM 26.1 °F 19.4 °F 24.1 °F 92% 29.46 in 4.0 mi South 5.8 mph - N/A   Overcast
9:32 PM 27.0 °F 20.5 °F 25.0 °F 92% 29.40 in 4.0 mi South 5.8 mph - N/A   Overcast
9:53 PM 27.0 °F 19.5 °F 25.0 °F 92% 29.45 in 4.0 mi SW 6.9 mph - N/A   Overcast
10:53 PM 27.0 °F 20.5 °F 24.1 °F 89% 29.45 in 5.0 mi SW 5.8 mph - N/A   Overcast
11:53 PM 26.1 °F 21.9 °F 25.0 °F 96% 29.45 in 5.0 mi WSW 3.5 mph - N/A   Overcast